Other Surface Observations
Issued by NWS Upton, NY

Home | Current Version | Previous Version | Text Only | Print | Product List | Glossary On
Versions: 1 2 3 4 5 6 7 8 9 10 11 12 13 14 15 16 17 18 19 20 21 22 23 24 25 26 27 28 29 30 31 32 33 34 35 36 37 38 39 40 41 42 43 44 45 46 47 48 49 50
000
SXUS51 KOKX 062157
OSOOKX
NEW YORK CITY METROPOLITAN WEATHER ROUNDUP
NATIONAL WEATHER SERVICE NEW YORK NY
600 PM EDT WED MAY 06 2015


CITY           SKY/WX    TMP DP  RH WIND       PRES   REMARKS
CENTRAL PARK   MOSUNNY   69  40  34 VRB3      30.26F
LAGUARDIA APRT MOSUNNY   64  43  46 NE10      30.24S
KENNEDY INTL   PTSUNNY   66  44  45 SE12      30.25S
NEWARK/LIBERTY PTSUNNY   68  47  46 S8        30.24R
TETERBORO APRT MOSUNNY   68  43  40 S3        30.23S
BNX BOT. GARD.   N/A     66  43  42 NE2       30.24F

>>>>>>>>>>>>>>>>>>>>>>>>>>>>>>>>> KEY <<<<<<<<<<<<<<<<<<<<<<<<<<<<<<<
> SKY/WX - SKY CONDITION/           : R : WCI - WIND CHILL INDEX    <
>          PRESENT WEATHER          : E : VSB - VISIBILITY IN MILES <
> TMP    - TEMPERATURE IN DEG F     : M : HX  - HEAT INDEX          <
> DP     - DEW POINT TEMPERATURE    : A : TC  - TEMPERATURE IN      <
> RH     - RELATIVE HUMIDITY        : R :       CELSIUS             <
> WIND   - DIRECTION/SPEED (MPH)    : K : VRB - VARIABLE WIND  DIR  <
> PRES   - PRESSURE (IN HG)         : S :                           <
>>>>>>>>>>>>>>>>>>>>>>>>>>>>>>>>> KEY <<<<<<<<<<<<<<<<<<<<<<<<<<<<<<<


USA.gov is the U.S. government's official web portal to all federal, state and local government web resources and services.